Terug naar catalogus

TITAN 3C TRANSTAGE R/B

ActiefMEO
NORAD 11560·ROCKET BODY·🇺🇸 United States

Gelanceerd Oct 1, 1979 vanaf Cape Canaveral Space Force Station

Loading…

Volgende Passages (komende 24 uur)

TLE

VersSource: Space-Track

Epoch: Sep 14, 2026, 13:14 UTC

1 11560U 79086C   26257.55204328 -.00000036  00000-0  00000-0 0  9994
2 11560   5.9060  13.1267 1293432 127.5214 245.0206  0.99682009 27136

Volg TITAN 3C TRANSTAGE R/B in realtime met AllMySat

Download on the App Store